Showing default

DEIMOS 2, 40013

Orbit data source: Space-Track

DEIMOS 2, 40013 is a payload satellite owned by Elecnor Deimos (ES) in SSO that was launched on Thu, 19 Jun 2014 UTC via a DNEPR launch vehicle from the Orenburg, Russia (OREN). Payload-class satellites include a variety of spacecraft equipped with specific instruments for various scientific and technological missions. These include communications satellites like Starlink; space stations such as the ISS; scientific satellites like the Hubble; Earth observation satellites from companies like Planet Labs, Umbra, and HawkEye 360; GPS; miniature CubeSats for education and research; and military/defense satellites.

Loading next visibility...
Identifier
40013, 2014-033D
Orbit
SSO
Country
Flag of ESES / SPN
Related business
Manufacturer
ELDEC/SATREC
Mission
Operational Commercial Imaging
Bus & Motor
DEIMOS-2, Unknown motor
Mass
300 kg wet, 300 kg dry
Launch date (UTC)
2014-06-19 (12 years ago)
Launch vehicle
DNEPR
Launch site
Orenburg, Russia (OREN)
Object type
Payload
Rocket body
Debris
Shape & HBR
Hex Cyl + 3 Pan, 1.5 m
Radar Cross Section
2.520 m², Large (>1 m²)

Expand to show TLE details & history
Last TLE update: 22 hours ago

TLE from 22 hours ago
0 DEIMOS 2
1 40013U 14033D   26172.53738174  .00001554  00000-0  15187-3 0  9995
2 40013  97.5819  46.8723 0001408  60.2856 299.8504 14.93736204638372
Epoch: 2026-06-21T12:53Z
TLE epoch observation values (Epoch: 2026-06-21T12:53:49.782Z)
Latitude
-0.00005°
Longitude
-56.32135°
Altitude
588.86 km
Speed
7.566 km/s
True Right ascension
03h 07m 29s
True Declination
0° 00' 00"
Sunlit
Object was in daylight at epoch
Visualization orbit readout
Latitude
Unknown
Longitude
Unknown
Altitude
Unknown
Speed
Unknown
Apparent Right ascension
Unknown
Apparent Declination
Unknown
Sunlit
N/A
Visualization observer readout
Local Sidereal Time
21:57:41
Azimuth
Unknown
Elevation
Unknown
Doppler factor
Unknown
Orbital elements
Apogee altitude
584.287 km
Perigee altitude
582.327 km
Semi-major axis
6,961.444 km
Eccentricity
0.00014
Inclination
97.5819°
RAAN
46.8723°
Arg. of periapsis
60.2856°
True anomaly
299.8364°
Mean anomaly
299.8504°
Eccentric anomaly
299.8434°
Mean motion
3.73675 °/min
Orbital period
96.34 mins
BSTAR
0.00015187
Loading maneuver chart data...
Computing Atmospheric mass density...
Loading historical data...
Loading historical data...
Loading historical data...
Loading historical data...
Loading historical data...
Loading historical data...
Loading historical data...

Documentation

Showing up to 5 results
|